GW6387 Weather Reports


Display with metric or nautical units.
time (UTC)temp
F
wind
direction
speed
MPH
gust
MPH
rain 1hr
in
rain 24hr
in
rain mn
in
humidity
%
barometer
mb
20260506221827 46 216 2.0 2.0 0.00 0.00 0.46 99 1010.4
20260506221330 46 237 1.0 2.0 0.00 0.00 0.46 99 1010.4
20260506220827 46 273 1.0 1.0 0.00 0.00 0.46 99 1010.3
20260506220328 46 336 2.0 2.0 0.00 0.00 0.46 99 1010.3
20260506215828 46 212 0.0 1.0 0.00 0.00 0.46 99 1010.2
20260506215327 46 303 0.0 1.0 0.00 0.00 0.46 99 1010.0
20260506214830 46 44 0.0 1.0 0.00 0.00 0.46 99 1009.9
20260506214327 46 305 1.0 1.0 0.00 0.00 0.46 99 1009.8
20260506213827 46 341 1.0 2.0 0.00 0.00 0.46 99 1009.8
20260506213328 45 262 1.0 2.0 0.00 0.00 0.46 99 1010.0
20260506212827 45 329 0.0 1.0 0.00 0.00 0.46 99 1010.0
20260506212327 45 358 2.0 3.0 0.00 0.00 0.46 99 1009.9
20260506211827 46 287 0.0 1.0 0.00 0.00 0.46 100 1009.8
20260506211327 46 51 0.0 1.0 0.00 0.00 0.46 100 1009.8
20260506210827 46 323 2.0 2.0 0.00 0.00 0.46 100 1009.8
20260506210327 46 243 2.0 2.0 0.00 0.00 0.46 100 1009.7
20260506205827 46 235 2.0 3.0 0.00 0.00 0.46 99 1009.6
20260506205328 46 258 3.0 4.0 0.00 0.00 0.46 99 1009.6
20260506204828 46 299 1.0 2.0 0.00 0.00 0.46 99 1009.3
20260506204327 46 315 2.0 4.0 0.00 0.00 0.46 99 1009.3
20260506203830 46 343 1.0 2.0 0.00 0.00 0.46 99 1009.2
20260506203328 46 134 1.0 1.0 0.00 0.00 0.46 99 1009.2
20260506202827 46 351 1.0 2.0 0.00 0.00 0.46 99 1009.2
20260506202329 46 13 2.0 3.0 0.00 0.00 0.46 99 1009.1
20260506201828 46 307 1.0 2.0 0.00 0.00 0.46 99 1009.0
20260506201327 46 343 2.0 2.0 0.00 0.00 0.46 99 1009.1
20260506200828 45 356 1.0 2.0 0.00 0.00 0.46 99 1009.1
20260506200328 46 30 1.0 3.0 0.00 0.00 0.46 99 1009.2
20260506195827 46 340 2.0 2.0 0.00 0.00 0.46 99 1009.2
20260506195327 46 23 2.0 2.0 0.00 0.00 0.46 99 1009.2
20260506194829 46 5 2.0 4.0 0.00 0.00 0.46 99 1009.1
20260506194328 46 53 3.0 4.0 0.00 0.00 0.46 99 1009.2
20260506193828 46 11 2.0 2.0 0.00 0.00 0.46 99 1009.1
20260506193328 46 19 2.0 2.0 0.00 0.00 0.46 99 1009.1
20260506192827 46 1 1.0 2.0 0.00 0.00 0.46 99 1009.0
20260506192328 46 0 1.0 2.0 0.00 0.00 0.46 99 1008.9
20260506191828 46 341 2.0 2.0 0.00 0.00 0.46 99 1008.8
20260506191327 46 6 1.0 1.0 0.00 0.00 0.46 99 1008.7
20260506190827 46 359 2.0 3.0 0.00 0.00 0.46 99 1008.8
20260506190327 46 21 2.0 2.0 0.00 0.00 0.46 99 1008.8
20260506185828 46 21 2.0 2.0 0.00 0.00 0.46 99 1008.9
20260506185329 46 342 2.0 2.0 0.00 0.00 0.46 99 1008.9
20260506184827 47 14 2.0 2.0 0.00 0.00 0.46 99 1008.8
20260506184327 47 1 2.0 2.0 0.00 0.00 0.46 99 1008.6
20260506183827 47 8 1.0 1.0 0.00 0.00 0.46 99 1008.5
20260506183328 47 337 1.0 1.0 0.00 0.00 0.46 99 1008.4
20260506182827 47 328 2.0 3.0 0.00 0.00 0.46 99 1008.4
20260506182329 47 18 1.0 2.0 0.00 0.00 0.46 99 1008.4
20260506181827 47 32 1.0 2.0 0.00 0.00 0.46 99 1008.3
20260506181330 47 31 2.0 2.0 0.00 0.00 0.46 99 1008.2
20260506180827 47 358 2.0 2.0 0.00 0.00 0.46 99 1008.2
20260506180327 47 352 2.0 2.0 0.00 0.00 0.46 99 1008.0
20260506175829 47 351 1.0 2.0 0.00 0.00 0.46 99 1007.8
20260506175328 47 351 1.0 1.0 0.00 0.00 0.46 99 1007.9
20260506174827 47 340 0.0 0.0 0.00 0.00 0.46 99 1008.0
20260506174327 47 331 1.0 1.0 0.00 0.00 0.46 99 1008.0
20260506173828 47 269 1.0 2.0 0.00 0.00 0.46 99 1007.9
20260506173327 47 299 1.0 1.0 0.00 0.00 0.46 99 1007.8
20260506172829 47 18 1.0 2.0 0.00 0.00 0.46 99 1007.8
20260506172327 47 209 0.0 1.0 0.00 0.00 0.46 99 1007.9
20260506171827 47 183 0.0 1.0 0.00 0.00 0.46 99 1007.7
20260506171327 47 8 1.0 2.0 0.00 0.00 0.46 99 1007.7
20260506170827 46 68 0.0 1.0 0.00 0.00 0.46 99 1007.7
20260506170329 46 355 1.0 1.0 0.00 0.00 0.46 99 1007.8
20260506165829 46 42 2.0 2.0 0.00 0.00 0.46 99 1007.7
20260506165327 46 47 1.0 2.0 0.00 0.00 0.46 99 1007.8
20260506164829 46 29 2.0 2.0 0.00 0.00 0.46 99 1007.8
20260506164329 46 10 1.0 2.0 0.00 0.00 0.46 99 1008.0
20260506163828 46 38 1.0 2.0 0.00 0.00 0.46 99 1008.0
20260506163327 46 0 0.0 0.0 0.00 0.00 0.46 99 1007.8
20260506162828 46 25 0.0 1.0 0.00 0.00 0.46 99 1007.9
20260506162327 46 335 1.0 1.0 0.00 0.00 0.46 99 1008.0
20260506161827 45 67 1.0 1.0 0.00 0.00 0.46 99 1008.0
20260506161327 45 91 0.0 1.0 0.00 0.00 0.46 99 1008.0
20260506160827 45 41 1.0 1.0 0.01 0.00 0.46 99 1008.1
20260506160328 45 47 1.0 1.0 0.01 0.00 0.46 99 1008.1
20260506155829 45 57 1.0 2.0 0.01 0.00 0.46 99 1008.2
20260506155328 45 24 1.0 2.0 0.01 0.00 0.46 99 1008.2
20260506154829 45 356 1.0 2.0 0.01 0.00 0.46 99 1008.2
20260506154327 45 100 1.0 1.0 0.01 0.00 0.46 99 1008.4
20260506153827 45 17 1.0 1.0 0.02 0.00 0.46 99 1008.4
20260506153329 45 28 1.0 1.0 0.02 0.00 0.46 99 1008.3
20260506152829 45 12 2.0 2.0 0.03 0.00 0.46 99 1008.2
20260506152328 45 39 1.0 2.0 0.04 0.00 0.47 99 1008.4
20260506151828 45 327 0.0 0.0 0.04 0.00 0.46 99 1008.3
20260506151327 44 238 0.0 1.0 0.05 0.00 0.46 99 1008.0
20260506150828 44 15 0.0 1.0 0.05 0.00 0.46 99 1007.9
20260506150329 44 31 1.0 1.0 0.05 0.00 0.45 99 1007.9
20260506145827 44 48 1.0 1.0 0.05 0.00 0.46 99 1007.7
20260506145327 45 77 0.0 0.0 0.06 0.00 0.46 99 1007.8
20260506144827 45 248 0.0 0.0 0.06 0.00 0.45 99 1007.9
20260506144335 45 42 1.0 1.0 0.06 0.00 0.45 99 1007.8
20260506143828 45 113 1.0 1.0 0.06 0.00 0.45 99 1007.9
20260506142922 44 34 1.0 1.0 0.08 0.00 0.44 99 1007.9
20260506142330 44 50 1.0 1.0 0.08 0.00 0.43 99 1008.0
20260506141827 44 41 0.0 1.0 0.09 0.00 0.42 99 1008.1
20260506141329 44 46 2.0 2.0 0.10 0.00 0.42 99 1008.1
20260506140827 44 45 1.0 1.0 0.10 0.00 0.41 99 1008.0
20260506140327 44 33 1.0 1.0 0.10 0.00 0.40 99 1008.1
20260506135828 44 41 2.0 2.0 0.10 0.00 0.39 99 1008.2
20260506135328 44 61 1.0 2.0 0.10 0.00 0.39 99 1008.2
20260506134827 44 53 2.0 2.0 0.09 0.00 0.38 99 1008.2
20260506134327 44 44 1.0 2.0 0.09 0.00 0.37 99 1008.2
20260506133828 44 45 2.0 2.0 0.09 0.00 0.37 99 1008.3
20260506133328 44 42 2.0 2.0 0.09 0.00 0.35 99 1008.3
20260506132828 44 34 1.0 1.0 0.09 0.00 0.35 99 1008.4
20260506132328 44 44 1.0 2.0 0.08 0.00 0.35 99 1008.4
20260506131828 45 30 1.0 2.0 0.09 0.00 0.34 99 1008.3
20260506131328 45 35 2.0 2.0 0.09 0.00 0.33 99 1008.0
20260506130828 45 46 0.0 1.0 0.07 0.00 0.32 99 1008.4
20260506130327 45 342 1.0 1.0 0.07 0.00 0.30 99 1008.6
20260506125827 45 32 1.0 1.0 0.07 0.00 0.29 99 1008.3
20260506125327 45 110 0.0 0.0 0.06 0.00 0.29 99 1008.2
20260506124828 44 327 0.0 1.0 0.06 0.00 0.28 99 1008.2
20260506124328 44 29 2.0 2.0 0.05 0.00 0.27 99 1008.2
20260506123827 45 42 1.0 2.0 0.05 0.00 0.27 99 1008.1
20260506123327 45 71 2.0 2.0 0.05 0.00 0.26 99 1008.1
20260506122828 45 58 1.0 2.0 0.05 0.00 0.26 99 1008.1
20260506122327 45 73 1.0 2.0 0.05 0.00 0.26 99 1008.2
20260506121827 45 32 2.0 3.0 0.05 0.00 0.24 99 1008.1
20260506121328 45 45 2.0 2.0 0.06 0.00 0.24 99 1008.2
20260506120829 45 46 2.0 2.0 0.06 0.00 0.23 99 1008.3
20260506120327 45 36 1.0 2.0 0.08 0.00 0.23 99 1008.2
20260506115827 45 20 2.0 2.0 0.08 0.00 0.23 99 1008.2
20260506115328 45 39 2.0 2.0 0.08 0.00 0.22 99 1008.2
20260506114827 45 42 2.0 2.0 0.08 0.00 0.21 99 1008.2
20260506114327 45 33 2.0 2.0 0.08 0.00 0.21 99 1008.2
20260506113827 45 27 2.0 2.0 0.08 0.00 0.21 99 1008.2
20260506113327 46 32 1.0 1.0 0.08 0.00 0.20 99 1008.2
20260506112827 46 70 1.0 1.0 0.08 0.00 0.20 99 1008.4
20260506112330 45 23 1.0 2.0 0.08 0.00 0.20 99 1008.3
20260506111827 45 297 0.0 0.0 0.07 0.00 0.20 99 1008.4
20260506111327 46 30 0.0 1.0 0.06 0.00 0.20 99 1008.5
20260506110827 46 350 0.0 1.0 0.04 0.00 0.18 99 1008.4
20260506110327 45 37 1.0 1.0 0.04 0.00 0.16 99 1008.4
20260506105828 45 291 0.0 0.0 0.04 0.00 0.15 99 1008.5
20260506105327 45 39 0.0 1.0 0.05 0.00 0.15 99 1008.5
20260506104827 45 272 1.0 2.0 0.05 0.00 0.14 99 1008.6
20260506104327 45 24 1.0 1.0 0.05 0.00 0.14 99 1008.4
20260506103829 45 256 1.0 2.0 0.04 0.00 0.14 99 1008.3
20260506103328 45 30 0.0 1.0 0.04 0.00 0.13 99 1008.2
20260506102827 45 46 0.0 0.0 0.04 0.00 0.12 99 1008.2
20260506102327 45 310 1.0 1.0 0.04 0.00 0.12 99 1008.4
20260506101827 45 44 0.0 0.0 0.04 0.00 0.12 99 1008.4
20260506101327 45 220 0.0 0.0 0.04 0.00 0.12 99 1008.4
20260506100827 45 71 0.0 0.0 0.03 0.00 0.12 99 1008.5
20260506100327 45 0 0.0 0.0 0.03 0.00 0.11 99 1008.5
20260506095827 45 354 0.0 1.0 0.04 0.00 0.11 99 1008.6
20260506095327 45 36 1.0 1.0 0.03 0.00 0.11 99 1008.8
20260506094827 45 189 2.0 2.0 0.03 0.00 0.10 99 1009.0
20260506094327 45 9 2.0 2.0 0.03 0.00 0.10 99 1008.9
20260506093828 45 52 1.0 1.0 0.03 0.00 0.09 99 1009.0
20260506093327 45 210 2.0 3.0 0.03 0.00 0.09 99 1009.3
20260506092827 45 36 3.0 3.0 0.03 0.00 0.08 99 1008.8
20260506092328 45 264 3.0 4.0 0.02 0.00 0.09 99 1009.2
20260506091830 46 51 2.0 3.0 0.03 0.00 0.08 99 1009.2
20260506091331 46 43 3.0 3.0 0.03 0.00 0.08 99 1009.0
20260506090827 46 24 2.0 4.0 0.02 0.00 0.08 99 1008.9
20260506090335 46 20 2.0 2.0 0.03 0.00 0.08 99 1008.8
20260506085827 46 29 3.0 4.0 0.03 0.00 0.08 99 1009.0
20260506085329 47 42 3.0 4.0 0.02 0.00 0.07 99 1009.0
20260506084827 47 26 2.0 2.0 0.02 0.00 0.07 99 1008.8
20260506084328 47 41 3.0 4.0 0.02 0.00 0.07 99 1008.5
20260506083827 47 38 2.0 2.0 0.02 0.00 0.07 99 1008.9
20260506083327 47 37 1.0 1.0 0.02 0.00 0.06 99 1009.0
20260506082827 47 29 1.0 1.0 0.01 0.00 0.06 99 1008.9
20260506082327 47 67 1.0 3.0 0.01 0.00 0.06 99 1009.0
20260506081828 47 30 1.0 2.0 0.01 0.00 0.05 99 1008.8
20260506081327 47 36 2.0 3.0 0.00 0.00 0.05 99 1008.5
20260506080827 47 271 1.0 2.0 0.00 0.00 0.05 99 1009.0
20260506080328 47 280 1.0 2.0 0.00 0.00 0.05 99 1008.9
20260506073328 47 8 0.0 1.0 0.00 0.00 0.05 100 1008.7
20260506072827 47 47 1.0 2.0 0.03 0.00 0.05 99 1008.5
20260506072327 47 31 1.0 1.0 0.08 0.00 0.05 100 1008.6
20260506071828 47 3 1.0 2.0 0.08 0.00 0.08 100 1008.8
20260506071327 47 26 0.0 1.0 0.08 0.00 0.08 100 1009.0
20260506070828 47 262 0.0 1.0 0.08 0.00 0.08 100 1008.9
20260506070327 47 28 0.0 1.0 0.08 0.00 0.08 100 1008.7
20260506062327 48 289 1.0 1.0 0.00 0.00 0.02 100 1009.7
20260506061827 48 28 0.0 1.0 0.00 0.00 0.00 100 1009.7
20260506061330 48 268 1.0 1.0 0.00 0.00 0.00 100 1009.7
20260506060827 48 354 2.0 3.0 0.00 0.00 0.00 100 1009.4
20260506060327 48 258 2.0 4.0 0.00 0.00 0.00 100 1009.8
20260506051327 48 113 1.0 2.0 0.00 0.00 0.00 100 1010.4
20260506050829 48 307 1.0 2.0 0.00 0.00 0.00 100 1010.5
20260506050327 48 34 2.0 2.0 0.00 0.00 0.00 100 1010.1
20260506044827 49 31 1.0 1.0 0.00 0.00 0.00 100 1010.2
20260506044328 49 37 1.0 2.0 0.00 0.00 0.00 100 1010.2
20260506043827 49 33 0.0 1.0 0.00 0.00 0.00 99 1010.1
20260506043327 49 37 0.0 1.0 0.00 0.00 0.00 99 1010.3
20260506042827 49 28 0.0 1.0 0.01 0.00 0.00 99 1010.4
20260506042327 49 2 0.0 1.0 0.01 0.00 0.00 99 1010.4
20260506041827 49 295 0.0 1.0 0.01 0.00 0.00 99 1010.5
20260506041327 49 249 1.0 1.0 0.01 0.00 0.00 99 1010.5
20260506040827 49 21 0.0 1.0 0.01 0.00 0.00 99 1010.4
20260506040327 49 273 0.0 1.0 0.01 0.00 0.00 99 1010.7
20260506035827 49 321 0.0 1.0 0.02 0.00 0.24 99 1010.6
20260506035327 49 60 0.0 1.0 0.02 0.00 0.24 99 1010.4
20260506034827 48 322 1.0 1.0 0.02 0.00 0.24 99 1010.7
20260506034327 49 261 2.0 2.0 0.04 0.00 0.24 99 1010.8
20260506033827 49 342 1.0 2.0 0.04 0.00 0.24 99 1010.6
20260506033328 49 116 0.0 1.0 0.04 0.00 0.24 99 1010.8
20260506032828 49 29 0.0 1.0 0.04 0.00 0.24 99 1011.1
20260506032327 48 219 1.0 2.0 0.03 0.00 0.23 99 1011.2
20260506031828 48 26 1.0 1.0 0.04 0.00 0.22 99 1010.8
20260506031327 48 290 0.0 0.0 0.04 0.00 0.22 98 1011.1
20260506030827 48 246 0.0 1.0 0.04 0.00 0.22 98 1011.2
20260506030327 48 227 1.0 2.0 0.04 0.00 0.22 98 1011.2
20260506025829 48 233 0.0 1.0 0.04 0.00 0.22 98 1011.0
20260506025327 48 31 1.0 2.0 0.02 0.00 0.22 98 1010.7
20260506024827 48 245 0.0 0.0 0.02 0.00 0.21 98 1011.0
20260506024327 48 291 0.0 1.0 0.02 0.00 0.20 98 1011.1
20260506023827 49 139 1.0 2.0 0.02 0.00 0.20 98 1011.1
20260506023328 49 21 1.0 2.0 0.02 0.00 0.19 98 1010.8
20260506022828 49 3 1.0 2.0 0.02 0.00 0.19 98 1011.2
20260506022327 49 3 0.0 1.0 0.01 0.00 0.20 97 1011.1
20260506021828 49 37 0.0 1.0 0.01 0.00 0.20 97 1011.2
20260506021327 49 9 1.0 1.0 0.03 0.00 0.19 97 1011.0
20260506020827 49 293 1.0 2.0 0.03 0.00 0.19 97 1011.3
20260506020327 49 36 2.0 3.0 0.03 0.00 0.19 97 1010.2
20260506015827 49 253 1.0 2.0 0.03 0.00 0.19 97 1011.0
20260506015327 49 76 1.0 3.0 0.03 0.00 0.18 96 1010.5
20260506014827 49 260 2.0 3.0 0.03 0.00 0.18 96 1010.8
20260506014327 49 17 1.0 2.0 0.03 0.00 0.18 95 1010.5
20260506013827 49 35 1.0 2.0 0.02 0.00 0.18 95 1011.0
20260506013328 49 68 1.0 2.0 0.02 0.00 0.18 94 1011.1
20260506012827 49 40 2.0 2.0 0.02 0.00 0.18 94 1011.3
20260506012327 50 31 2.0 5.0 0.01 0.00 0.18 92 1011.0
20260506011827 51 8 1.0 2.0 0.00 0.00 0.17 90 1011.0
20260506011327 51 46 2.0 3.0 0.00 0.00 0.17 87 1011.0
20260506010827 52 335 2.0 4.0 0.00 0.00 0.16 85 1011.1
20260506010327 53 28 2.0 6.0 0.00 0.00 0.16 82 1010.8
20260506005827 54 46 3.0 7.0 0.00 0.00 0.15 78 1010.4
20260506005328 54 34 2.0 5.0 0.00 0.00 0.15 76 1010.2
20260506004827 55 292 2.0 6.0 0.00 0.00 0.15 74 1010.4
20260506004327 55 19 2.0 3.0 0.00 0.00 0.15 76 1010.2
20260506003827 56 8 3.0 5.0 0.00 0.00 0.15 74 1010.1
20260506003327 56 330 1.0 3.0 0.00 0.00 0.15 75 1010.0
20260506002827 56 306 1.0 3.0 0.00 0.00 0.15 74 1009.8
20260506002327 56 320 2.0 4.0 0.00 0.00 0.15 75 1009.5
20260506001828 56 331 3.0 6.0 0.00 0.00 0.15 75 1009.5
20260506001327 57 344 2.0 3.0 0.00 0.00 0.15 74 1009.6
20260506000829 57 18 2.0 3.0 0.00 0.00 0.15 73 1009.5
20260506000330 57 340 5.0 8.0 0.00 0.00 0.15 74 1009.4
20260505235827 57 309 3.0 6.0 0.00 0.00 0.15 78 1009.3
20260505235328 57 287 3.0 6.0 0.00 0.00 0.15 77 1009.0
20260505234827 57 276 2.0 6.0 0.00 0.00 0.15 77 1009.0
20260505234327 58 277 5.0 9.0 0.00 0.00 0.15 76 1008.8
20260505233827 58 335 2.0 6.0 0.00 0.00 0.15 78 1008.6
20260505233328 58 344 4.0 7.0 0.00 0.00 0.15 77 1008.5
20260505232828 58 31 3.0 6.0 0.00 0.00 0.15 79 1008.2
20260505232327 58 19 4.0 7.0 0.00 0.00 0.15 83 1008.0
20260505231826 59 40 1.0 2.0 0.00 0.00 0.15 87 1008.0
20260505231327 59 340 2.0 5.0 0.00 0.00 0.15 85 1007.8
20260505230827 59 16 1.0 3.0 0.00 0.00 0.15 87 1007.7
20260505230327 59 43 1.0 2.0 0.00 0.00 0.15 87 1007.6
20260505225828 60 357 2.0 3.0 0.00 0.00 0.16 86 1007.7
20260505225327 60 323 0.0 1.0 0.00 0.00 0.16 89 1007.6
20260505224828 60 0 0.0 1.0 0.00 0.00 0.16 89 1007.5
20260505224328 60 288 0.0 1.0 0.00 0.00 0.16 88 1007.4
20260505223827 60 18 0.0 1.0 0.00 0.00 0.16 89 1007.3
20260505223328 60 27 1.0 1.0 0.00 0.00 0.16 89 1007.1
20260505222827 60 41 1.0 2.0 0.00 0.00 0.16 90 1007.1
20260505222327 61 335 2.0 5.0 0.00 0.00 0.16 90 1006.9